Weather in Vyshmanovo

Russia / Vladimir Oblast     55°59′47″N   40°12′40″E
temp.,
°C
wind,
m/s
gust,
m/s
humid.,
%
clouds,
%
prec.,
mm/h
press.,
hPa
HPBL,
m
7 march, sun
sun700:00−14sw23940 0.0 101226
03:00−14ssw37940 0.0 1010124
06:00−10ssw6139067 0.0 1006407
09:00−7ssw7149283 0.2 1001883
12:00−5ssw81392100 0.9 9961086
15:00−3sw71294100 2.4 993950
18:00−2wnw3696100 2.1 992543
21:00−7nnw2493100 3.0 991104
8 march, mon
mon800:00−10wsw349473 0.0 99357
03:00−7wnw4109386 1.1 995684
06:00−10sw3994100 0.1 995268
09:00−9sw4893100 0.1 996540
12:00−6w4683100 0.8 997928
15:00−5nnw4681100 1.4 999977
18:00−9nnw499064 0.1 1002271
21:00−12nw4119338 0.1 1006258
9 march, tue
tue900:00−15nw379751 0.0 1008129
03:00−17nw369758 0.0 1009100
06:00−18nnw369770 0.0 1012142
09:00−18nnw479578 0.1 1014289
12:00−15nnw469183 0.0 1015393
15:00−14nnw468986 0.0 1016511
18:00−18nnw359596 0.0 1017102
21:00−21nnw379875 0.0 1020150
10 march, wed
wed1000:00−24nnw359855 0.0 102186
03:00−26nnw349955 0.0 102371
06:00−27nnw33980 0.0 102450
09:00−24nnw35950 0.0 1026229
12:00−19nnw35870 0.0 1027361
15:00−17nnw35840 0.0 1026416
18:00−20nw22920 0.0 102620
21:00−21wnw23920 0.0 102820
11 march, thu
thu1100:00−22w23930 0.0 102820
03:00−23w23910 0.0 102920
06:00−23w23896 0.0 102920
09:00−18wsw238912 0.0 1029127
12:00−11ssw24795 0.0 1028370
15:00−9s46772 0.0 1026602
18:00−11s379335 0.0 1025207
21:00−13s4109568 0.1 1024296